When you browse on this site, cookies collect data to enhance your experience and personalize the content and advertising you see.
Visit our Privacy Policy to learn more. By continuing to use the site, you agree to this use of cookies and data.
  • In Hungary
  • List of Countries
  • For 7 days
  • Water Temperature
  • Satellite Maps
  • Weather Map
  • News
  • Weather Widgets
  • user-avatar
    Login

    Hourly Weather Gagra

    Today, 19 November, Monday

    Time Temperature Precipitation Wind Pressure Humidity
    00:00 +4°C° 0 mm 3 mps 739 mmHg 60%
    01:00 +4°C° 0 mm 3 mps 739 mmHg 58%
    02:00 +4°C° 0 mm 3 mps 739 mmHg 57%
    03:00 +4°C° 0 mm 3 mps 739 mmHg 56%
    04:00 +4°C° 0 mm 3 mps 738 mmHg 56%
    05:00 +5°C° 0 mm 4 mps 738 mmHg 56%
    06:00 +5°C° 0 mm 4 mps 738 mmHg 55%
    07:00 +6°C° 0 mm 4 mps 738 mmHg 53%
    08:00 +7°C° 0 mm 4 mps 738 mmHg 51%
    09:00 +8°C° 0 mm 4 mps 737 mmHg 49%
    10:00 +11°C° 0 mm 4 mps 737 mmHg 46%
    11:00 +13°C° 0 mm 4 mps 737 mmHg 43%
    12:00 +14°C° 0 mm 4 mps 737 mmHg 40%
    13:00 +14°C° 0 mm 4 mps 737 mmHg 43%
    14:00 +14°C° 0 mm 4 mps 736 mmHg 46%
    15:00 +14°C° 0 mm 3 mps 736 mmHg 49%
    16:00 +13°C° 0 mm 3 mps 736 mmHg 51%
    17:00 +12°C° 0 mm 4 mps 736 mmHg 53%
    18:00 +10°C° 0 mm 4 mps 736 mmHg 55%
    19:00 +11°C° 0 mm 4 mps 736 mmHg 53%
    20:00 +11°C° 0 mm 4 mps 736 mmHg 51%
    21:00 +11°C° 0 mm 4 mps 736 mmHg 49%
    22:00 +11°C° 0.2 mm 4 mps 735 mmHg 54%
    23:00 +11°C° 0.2 mm 4 mps 735 mmHg 59%

    Tomorrow, 20 November, Tuesday

    Time Temperature Precipitation Wind Pressure Humidity
    00:00 +10°C° 0.2 mm 5 mps 735 mmHg 64%
    01:00 +10°C° 0.1 mm 5 mps 735 mmHg 66%
    02:00 +10°C° 0.1 mm 5 mps 735 mmHg 68%
    03:00 +10°C° 0.1 mm 5 mps 735 mmHg 70%
    04:00 +10°C° 0.1 mm 5 mps 735 mmHg 71%
    05:00 +10°C° 0.1 mm 5 mps 735 mmHg 72%
    06:00 +10°C° 0.1 mm 5 mps 735 mmHg 73%
    07:00 +12°C° 0.5 mm 5 mps 735 mmHg 75%
    08:00 +12°C° 0.5 mm 5 mps 736 mmHg 77%
    09:00 +12°C° 0.5 mm 5 mps 736 mmHg 79%
    10:00 +12°C° 1.1 mm 5 mps 736 mmHg 81%
    11:00 +12°C° 1.1 mm 5 mps 736 mmHg 83%
    12:00 +12°C° 1.1 mm 5 mps 736 mmHg 84%
    13:00 +11°C° 0.2 mm 4 mps 736 mmHg 85%
    14:00 +11°C° 0.2 mm 4 mps 736 mmHg 85%
    15:00 +11°C° 0.2 mm 4 mps 736 mmHg 85%
    16:00 +11°C° 0.1 mm 4 mps 737 mmHg 86%
    17:00 +10°C° 0.1 mm 3 mps 737 mmHg 87%
    18:00 +10°C° 0.1 mm 3 mps 737 mmHg 88%
    19:00 +10°C° 0 mm 3 mps 737 mmHg 87%
    20:00 +9°C° 0 mm 3 mps 737 mmHg 87%
    21:00 +9°C° 0 mm 3 mps 737 mmHg 87%
    22:00 +9°C° 0 mm 2 mps 737 mmHg 86%
    23:00 +8°C° 0 mm 2 mps 737 mmHg 86%

    Day after tomorrow, 21 November, Wednesday

    Time Temperature Precipitation Wind Pressure Humidity
    00:00 +8°C° 0 mm 2 mps 737 mmHg 86%
    01:00 +7°C° 0 mm 2 mps 737 mmHg 85%
    02:00 +7°C° 0 mm 2 mps 737 mmHg 84%
    03:00 +6°C° 0 mm 2 mps 737 mmHg 83%
    04:00 +7°C° 0 mm 2 mps 737 mmHg 81%
    05:00 +7°C° 0 mm 2 mps 736 mmHg 79%
    06:00 +7°C° 0 mm 2 mps 736 mmHg 78%
    07:00 +8°C° 0.2 mm 2 mps 736 mmHg 76%
    08:00 +9°C° 0.2 mm 2 mps 736 mmHg 74%
    09:00 +10°C° 0.2 mm 2 mps 736 mmHg 72%
    10:00 +10°C° 0.4 mm 2 mps 735 mmHg 74%
    11:00 +12°C° 0.4 mm 2 mps 735 mmHg 76%
    12:00 +12°C° 0.4 mm 2 mps 734 mmHg 78%
    13:00 +12°C° 0.6 mm 2 mps 734 mmHg 80%
    14:00 +12°C° 0.6 mm 2 mps 734 mmHg 83%
    15:00 +10°C° 0.6 mm 2 mps 733 mmHg 85%
    16:00 +10°C° 0.8 mm 2 mps 733 mmHg 86%
    17:00 +10°C° 0.8 mm 2 mps 733 mmHg 87%
    18:00 +9°C° 0.8 mm 2 mps 733 mmHg 89%
    19:00 +9°C° 1.1 mm 2 mps 733 mmHg 89%
    20:00 +9°C° 1.1 mm 2 mps 733 mmHg 90%
    21:00 +9°C° 1.1 mm 2 mps 733 mmHg 91%
    22:00 +9°C° 0.9 mm 2 mps 733 mmHg 91%
    23:00 +9°C° 0.9 mm 2 mps 732 mmHg 92%

    22 November, Thursday

    Time Temperature Precipitation Wind Pressure Humidity
    00:00 +9°C° 0.9 mm 2 mps 732 mmHg 92%
    01:00 +9°C° 0.8 mm 3 mps 732 mmHg 92%
    02:00 +9°C° 0.8 mm 3 mps 732 mmHg 92%
    03:00 +9°C° 0.8 mm 3 mps 732 mmHg 92%
    04:00 +9°C° 0.4 mm 2 mps 732 mmHg 92%
    05:00 +9°C° 0.4 mm 2 mps 732 mmHg 92%
    06:00 +9°C° 0.4 mm 2 mps 732 mmHg 92%
    07:00 +9°C° 0.1 mm 2 mps 732 mmHg 91%
    08:00 +11°C° 0.1 mm 1 mps 732 mmHg 90%
    09:00 +11°C° 0.1 mm 1 mps 733 mmHg 89%
    10:00 +11°C° 0 mm 1 mps 733 mmHg 88%
    11:00 +12°C° 0 mm 1 mps 733 mmHg 87%
    12:00 +12°C° 0 mm 1 mps 733 mmHg 86%
    13:00 +12°C° 0 mm 1 mps 733 mmHg 87%
    14:00 +12°C° 0 mm 1 mps 733 mmHg 87%
    15:00 +12°C° 0 mm 1 mps 733 mmHg 88%
    16:00 +11°C° 0 mm 1 mps 733 mmHg 90%
    17:00 +10°C° 0 mm 1 mps 733 mmHg 92%
    18:00 +10°C° 0 mm 1 mps 733 mmHg 94%
    19:00 +9°C° 0.1 mm 1 mps 734 mmHg 93%
    20:00 +9°C° 0.1 mm 1 mps 734 mmHg 93%
    21:00 +8°C° 0.1 mm 1 mps 734 mmHg 92%
    22:00 +8°C° 0 mm 1 mps 735 mmHg 90%
    23:00 +7°C° 0 mm 2 mps 735 mmHg 88%

    23 November, Friday

    Time Temperature Precipitation Wind Pressure Humidity
    00:00 +6°C° 0 mm 2 mps 735 mmHg 86%
    01:00 +6°C° 0 mm 2 mps 735 mmHg 84%
    02:00 +6°C° 0 mm 2 mps 735 mmHg 81%
    03:00 +6°C° 0 mm 2 mps 736 mmHg 79%
    04:00 +5°C° 0 mm 2 mps 736 mmHg 78%
    05:00 +5°C° 0 mm 2 mps 736 mmHg 77%
    06:00 +5°C° 0 mm 2 mps 737 mmHg 76%
    07:00 +6°C° 0 mm 2 mps 737 mmHg 76%
    08:00 +7°C° 0 mm 2 mps 738 mmHg 76%
    09:00 +8°C° 0 mm 2 mps 738 mmHg 76%
    10:00 +9°C° 0 mm 2 mps 738 mmHg 76%
    11:00 +10°C° 0 mm 2 mps 738 mmHg 76%
    12:00 +12°C° 0 mm 2 mps 738 mmHg 76%
    13:00 +12°C° 0 mm 2 mps 739 mmHg 78%
    14:00 +12°C° 0 mm 2 mps 739 mmHg 79%
    15:00 +10°C° 0 mm 2 mps 739 mmHg 80%
    16:00 +9°C° 0 mm 2 mps 739 mmHg 83%
    17:00 +8°C° 0 mm 2 mps 740 mmHg 86%
    18:00 +7°C° 0 mm 2 mps 740 mmHg 89%
    19:00 +7°C° 0 mm 2 mps 741 mmHg 88%
    20:00 +7°C° 0 mm 2 mps 741 mmHg 87%
    21:00 +6°C° 0 mm 2 mps 741 mmHg 86%
    22:00 +6°C° 0 mm 2 mps 741 mmHg 85%
    23:00 +6°C° 0 mm 2 mps 741 mmHg 84%

    24 November, Saturday

    Time Temperature Precipitation Wind Pressure Humidity
    00:00 +5°C° 0 mm 3 mps 742 mmHg 83%
    01:00 +5°C° 0 mm 3 mps 742 mmHg 83%
    02:00 +5°C° 0 mm 3 mps 742 mmHg 82%
    03:00 +4°C° 0 mm 3 mps 742 mmHg 81%
    04:00 +4°C° 0.1 mm 3 mps 742 mmHg 80%
    05:00 +4°C° 0.1 mm 3 mps 742 mmHg 79%
    06:00 +4°C° 0.1 mm 3 mps 742 mmHg 78%
    07:00 +5°C° 0.1 mm 3 mps 742 mmHg 77%
    08:00 +7°C° 0.1 mm 3 mps 743 mmHg 76%
    09:00 +8°C° 0.1 mm 3 mps 743 mmHg 75%
    10:00 +9°C° 0 mm 3 mps 743 mmHg 74%
    11:00 +10°C° 0 mm 2 mps 743 mmHg 74%
    12:00 +12°C° 0 mm 2 mps 742 mmHg 73%
    13:00 +12°C° 0 mm 2 mps 742 mmHg 75%
    14:00 +12°C° 0 mm 1 mps 742 mmHg 77%
    15:00 +12°C° 0 mm 1 mps 742 mmHg 78%
    16:00 +11°C° 0 mm 1 mps 742 mmHg 80%
    17:00 +9°C° 0 mm 1 mps 742 mmHg 82%
    18:00 +8°C° 0 mm 1 mps 742 mmHg 85%
    19:00 +7°C° 0 mm 2 mps 742 mmHg 82%
    20:00 +7°C° 0 mm 2 mps 742 mmHg 79%
    21:00 +6°C° 0 mm 2 mps 742 mmHg 76%
    22:00 +6°C° 0 mm 2 mps 741 mmHg 73%
    23:00 +6°C° 0 mm 2 mps 741 mmHg 70%
    Show more